Find STARLINK-36764

NORAD ID: 70596 Constellation: starlink operational
LEOCIRCULAR

リアルタイム位置

3D地球を読み込み中...

STARLINK-36764について

説明を読み込み中...

次回通過

Passes for default location (London). Set your location on the main map for personalized predictions.

高度履歴

Loading altitude history...

軌道要素

1 70596C 26099N 26122.92062500 -.00152380 00000+0 -18474-3 0 1225
2 70596 53.1633 22.4009 0005154 288.4796 0.1340 16.07465515 15
Epoch: May 2, 2026 • Age: 30 hours